COTTON VALLEY VI US current weather conditions

sailwx.info

Wind from 105 at 3 knots gusting 12

Air temperature 25.6° C
Dewpoint 21.4° C

Last reported at 2020-Jun-03 10:13 UTC.
Time now 2020-Jun-03 12:05 UTC

Location: N 17°45' W 064°37'.
View on Google Maps.

See reports from other nearby stations

  
Tides and Currents Weather Stations Pressure Air Temp Water Temp Dewpoint Dewpoint Depression Visibility Wind Speed Wind Dir Waves Ship Positions
date/time (UTC)wind fromknots sea level pressurealtimeterstation pressurevisibilityair tempwater tempwave heightnotes
2020-Jun-03 10:13 105 3 gusting 12 25.6
2020-Jun-03 09:13 031 2 gusting 10 25.6
2020-Jun-03 08:13 137 4 gusting 10 25.6
2020-Jun-03 07:13 157 5 gusting 12 25.6
2020-Jun-03 06:13 168 5 gusting 14 25.6
2020-Jun-03 05:13 157 4 gusting 12 25.6
2020-Jun-03 04:13 137 4 gusting 14 26.1
2020-Jun-03 03:13 146 5 gusting 15 26.1
2020-Jun-03 02:13 137 4 gusting 12 26.1
2020-Jun-03 01:13 027 4 gusting 11 26.1
2020-Jun-03 00:13 035 4 gusting 8 26.1
2020-Jun-02 23:13 028 4 gusting 7 26.7
2020-Jun-02 22:13 112 3 gusting 11 27.2
2020-Jun-02 21:13 145 4 gusting 12 28.3
2020-Jun-02 20:13 154 4 gusting 11 30.0
2020-Jun-02 19:13 128 4 gusting 13 30.0
2020-Jun-02 18:13 124 4 gusting 10 32.2
2020-Jun-02 17:13 061 2 gusting 9 34.4
2020-Jun-02 16:13 039 3 gusting 10 33.3
2020-Jun-02 15:13 059 5 gusting 15 31.1
2020-Jun-02 14:13 077 4 gusting 13 33.9
2020-Jun-02 13:13 060 4 gusting 11 32.2
2020-Jun-02 12:13 048 3 gusting 11 30.6
2020-Jun-02 11:13 046 2 gusting 10 29.4
2020-Jun-02 10:13 040 2 gusting 10 25.6
2020-Jun-02 09:13 019 3 gusting 10 25.6
2020-Jun-02 08:13 056 2 gusting 9 25.6
2020-Jun-02 07:13 054 2 gusting 10 25.6
2020-Jun-02 06:13 020 2 gusting 7 25.6
2020-Jun-02 05:13 035 5 gusting 9 25.6
2020-Jun-02 04:13 029 5 gusting 10 25.6
2020-Jun-02 03:13 032 5 gusting 9 25.6
2020-Jun-02 02:13 027 4 gusting 7 25.6
2020-Jun-02 01:13 031 4 gusting 7 26.1
2020-Jun-02 00:13 028 4 gusting 8 26.1
2020-Jun-01 23:13 027 3 gusting 7 26.1
2020-Jun-01 22:13 035 2 gusting 9 27.8
2020-Jun-01 21:13 074 2 gusting 6 29.4
2020-Jun-01 20:13 117 3 gusting 7 32.2
2020-Jun-01 19:13 113 3 gusting 10 32.8
2020-Jun-01 18:13 143 4 gusting 12 33.9
2020-Jun-01 17:13 145 5 gusting 12 34.4
2020-Jun-01 16:13 154 6 gusting 12 33.9
2020-Jun-01 15:13 142 5 gusting 11 32.8
2020-Jun-01 13:13 157 6 gusting 11 30.6
2020-Jun-01 12:13 166 4 gusting 12 28.9